Regional Weather Roundup
Issued by NWS

Home | Current Version | Previous Version | Text Only | Print | Product List | Glossary Off
Versions: 1 2 3 4 5 6 7 8 9 10 11 12 13 14 15 16 17 18 19 20 21 22 23 24 25 26 27 28 29 30 31 32 33 34 35 36 37 38 39 40 41 42 43 44 45 46 47 48 49 50

000
ASUS44 KMEG 220810
RWRTN
TENNESSEE HOURLY STATE WEATHER ROUNDUP
NATIONAL WEATHER SERVICE MEMPHIS TN
300 AM CDT SUN APR 22 2018

TNZ002-004-019-021-049-052-054-088>092-220900-
WEST TENNESSEE

CITY           SKY/WX    TMP DP  RH WIND       PRES   REMARKS
MEMPHIS INTL   LGT RAIN  61  58  90 E5        30.03F
NWS MEMPHIS      N/A     58 N/A N/A MISG        N/A
JACKSON        CLOUDY    58  56  93 NE3       30.08F
DYERSBURG      LGT RAIN  57  52  83 E8        30.09F
SOMERVILLE     CLOUDY    59  55  88 CALM      30.04F
COVINGTON      CLOUDY    57  54  88 CALM      30.06F
UNION CITY     CLOUDY    55  52  88 CALM      30.11R
BOLIVAR        CLOUDY    63  48  59 E7        30.05F
PARIS          CLOUDY    63  41  45 E6        30.11S
HUNTINGDON     CLOUDY    63  43  48 E6        30.10R
LEXINGTON      CLOUDY    64  45  48 CALM      30.11R
SELMER         CLOUDY    64  48  55 SE6       30.08S
SAVANNAH       MOCLDY    64  48  55 SE6G13    30.09R
$$

TNZ008-025-027-028-033-062-065-066-220900-
NORTH MIDDLE TENNESSEE

CITY           SKY/WX    TMP DP  RH WIND       PRES   REMARKS
NASHVILLE      CLOUDY    57  39  51 E7        30.15F
PORTLAND       MOCLDY    57  37  47 E6        30.17F
CLARKSVILLE    FAIR      56  39  53 E8        30.14F
SMYRNA         MOCLDY    54  45  71 CALM      30.16F
COOKEVILLE     CLOUDY    54  45  71 CALM      30.19S
LIVINGSTON     SUNNY     59  37  44 S6        30.19S
GALLATIN       MOCLDY    57  39  51 NE3       30.19F
CROSSVILLE     CLOUDY    55  37  50 SE3       30.22F
ROCKWOOD       CLOUDY    54  36  50 CALM      30.23S
$$

TNZ061-075-076-078-094-096-097-220900-
SOUTH MIDDLE TENNESSEE

CITY           SKY/WX    TMP DP  RH WIND       PRES   REMARKS
LEWISBURG      MOSUNNY   57  46  67 CALM      30.13F
FAYETTEVILLE   CLOUDY    63  43  48 SE7       30.14F
TULLAHOMA      CLOUDY    63  41  45 SE7       30.15F
WINCHESTER     CLOUDY    63  39  42 E8        30.16S
MCMINNVILLE    CLOUDY    63  39  42 CALM      30.18S
COLUMBIA       CLEAR     63  46  55 VRB3      30.12S
SHELBYVILLE    MOCLDY    57  45  62 CALM      30.15F
$$

TNZ017-018-042-046-047-220900-
NORTHEAST TENNESSEE

CITY           SKY/WX    TMP DP  RH WIND       PRES   REMARKS
TRI CITIES     FAIR      44  38  79 CALM      30.26S
ELIZABETHTON     N/A     46  36  66 NE5       30.27S
$$

TNZ012-013-036-069-073-074-220900-
CENTRAL EAST TENNESSEE

CITY           SKY/WX    TMP DP  RH WIND       PRES   REMARKS
KNOXVILLE      CLOUDY    50  43  77 CALM      30.22S
OAK RIDGE      FAIR      48  43  82 CALM      30.24F
DOWNTOWN KNOXV   N/A     46  45  93 CALM      30.24S
GATLINBURG     CLOUDY    46  39  76 CALM      30.23S
MORRISTOWN     PTCLDY    48  37  66 NE3       30.23F
JACKSBORO      CLEAR     45  41  87 CALM      30.26S
$$

TNZ083-085-099-220900-
SOUTHEAST TENNESSEE

CITY           SKY/WX    TMP DP  RH WIND       PRES   REMARKS
CHATTANOOGA    CLOUDY    59  43  55 NW3       30.20F
DAYTON         CLOUDY    52  50  93 CALM      30.21S
$$

SKY/WX REPORTED AS FAIR MEANS FEW OR NO CLOUDS BELOW
12 THOUSAND FEET.





USA.gov is the U.S. government's official web portal to all federal, state and local government web resources and services.